Total_Precipitation_Accumulation
0.14 0.36 0.54 0.48 0.42 0.41 0.35 0.28 0.23 0.16 0.15 0.13 0.11 0.12 0.14 0.17 0.18 0.16 0.14 0.13 0.12 0.11 0.11 0.09 0.09 0.14 0.20 0.29 0.38 0.54 0.88 1.30 1.49 1.41 1.39 1.48 1.60 1.60 1.52 1.50 1.48 1.53 1.52 1.51
0.11 0.20 0.21 0.20 0.24 0.31 0.33 0.33 0.27 0.20 0.13 0.10 0.08 0.07 0.09 0.11 0.13 0.14 0.13 0.14 0.13 0.11 0.08 0.06 0.08 0.11 0.17 0.32 0.47 0.59 0.85 1.29 1.50 1.61 1.73 1.95 2.16 2.08 1.97 1.95 1.91 1.99 1.99 2.14
0.08 0.09 0.09 0.14 0.24 0.30 0.32 0.33 0.27 0.21 0.12 0.10 0.07 0.06 0.08 0.10 0.09 0.09 0.11 0.14 0.14 0.12 0.11 0.11 0.10 0.14 0.18 0.27 0.39 0.53 0.71 1.00 1.32 1.59 1.88 2.20 2.44 2.44 2.34 2.18 2.15 2.21 2.27 2.41
0.09 0.11 0.10 0.12 0.14 0.17 0.23 0.17 0.12 0.10 0.10 0.10 0.07 0.10 0.10 0.13 0.13 0.12 0.13 0.13 0.15 0.15 0.14 0.16 0.16 0.16 0.18 0.23 0.30 0.43 0.61 0.87 1.11 1.36 1.79 2.24 2.56 2.68 2.61 2.50 2.45 2.41 2.43 2.47
0.07 0.07 0.08 0.09 0.10 0.11 0.13 0.08 0.07 0.07 0.08 0.07 0.06 0.09 0.12 0.13 0.16 0.16 0.16 0.16 0.16 0.16 0.17 0.20 0.20 0.22 0.24 0.22 0.26 0.38 0.54 0.78 1.02 1.25 1.62 2.05 2.35 2.59 2.76 2.59 2.45 2.47 2.49 2.50
0.08 0.05 0.04 0.05 0.07 0.07 0.08 0.06 0.06 0.06 0.07 0.07 0.05 0.11 0.19 0.18 0.17 0.15 0.14 0.15 0.17 0.19 0.24 0.27 0.35 0.39 0.39 0.33 0.36 0.45 0.54 0.68 0.84 0.99 1.23 1.48 1.83 2.13 2.49 2.48 2.41 2.52 2.50 2.38
0.07 0.05 0.04 0.03 0.03 0.03 0.04 0.08 0.12 0.12 0.13 0.11 0.08 0.18 0.29 0.25 0.19 0.18 0.18 0.18 0.20 0.22 0.26 0.34 0.47 0.51 0.53 0.46 0.43 0.45 0.55 0.61 0.67 0.78 0.91 1.07 1.34 1.55 1.93 2.25 2.23 2.14 2.18 2.19
0.04 0.03 0.02 0.02 0.02 0.04 0.05 0.09 0.17 0.20 0.19 0.19 0.19 0.34 0.42 0.31 0.23 0.21 0.19 0.20 0.23 0.27 0.34 0.50 0.65 0.68 0.68 0.60 0.53 0.52 0.60 0.63 0.65 0.70 0.73 0.83 0.99 1.12 1.30 1.54 1.65 1.68 1.73 1.93
0.05 0.03 0.02 0.02 0.02 0.03 0.07 0.10 0.13 0.20 0.18 0.20 0.30 0.46 0.43 0.27 0.25 0.27 0.27 0.28 0.37 0.47 0.55 0.67 0.81 0.83 0.75 0.69 0.61 0.60 0.64 0.73 0.73 0.72 0.74 0.83 0.89 0.93 1.05 1.09 1.24 1.43 1.46 1.50
0.09 0.05 0.03 0.03 0.03 0.04 0.06 0.10 0.17 0.28 0.33 0.31 0.33 0.45 0.47 0.37 0.37 0.37 0.42 0.44 0.55 0.66 0.74 0.82 0.95 0.97 0.83 0.71 0.61 0.59 0.61 0.73 0.92 1.04 0.99 0.93 1.00 1.07 1.30 1.33 1.18 1.17 1.35 1.40
0.21 0.16 0.06 0.05 0.07 0.10 0.14 0.21 0.27 0.35 0.38 0.49 0.58 0.63 0.58 0.57 0.58 0.59 0.62 0.65 0.74 0.86 0.87 0.84 0.91 0.98 0.87 0.68 0.61 0.56 0.56 0.67 0.83 0.87 0.93 0.92 0.97 1.07 1.35 1.57 1.50 1.32 1.32 1.36
0.25 0.31 0.18 0.10 0.14 0.17 0.23 0.34 0.50 0.69 0.66 0.62 0.75 0.79 0.64 0.58 0.62 0.64 0.64 0.63 0.67 0.79 0.80 0.81 0.83 0.80 0.70 0.56 0.49 0.47 0.48 0.59 0.71 0.70 0.77 0.84 0.85 0.94 1.07 1.19 1.21 1.14 1.06 1.03
0.35 0.47 0.39 0.27 0.33 0.33 0.41 0.45 0.51 0.63 0.71 0.72 0.80 0.83 0.61 0.53 0.49 0.52 0.55 0.58 0.60 0.60 0.60 0.59 0.60 0.57 0.55 0.53 0.50 0.45 0.47 0.54 0.60 0.64 0.69 0.77 0.80 0.82 0.84 0.85 0.78 0.81 0.84 0.90
0.34 0.43 0.48 0.48 0.54 0.59 0.59 0.50 0.45 0.60 0.78 0.73 0.74 0.73 0.60 0.53 0.49 0.52 0.53 0.54 0.57 0.50 0.44 0.44 0.46 0.47 0.49 0.49 0.49 0.46 0.43 0.51 0.60 0.74 0.81 0.86 0.87 0.87 0.87 0.85 0.81 0.80 0.82 0.88
0.23 0.26 0.26 0.25 0.27 0.39 0.44 0.38 0.38 0.45 0.51 0.66 0.65 0.64 0.52 0.49 0.53 0.56 0.54 0.49 0.45 0.39 0.34 0.35 0.35 0.38 0.37 0.38 0.40 0.40 0.38 0.44 0.51 0.65 0.77 0.83 0.86 0.87 0.84 0.77 0.75 0.79 0.76 0.75
0.15 0.19 0.18 0.16 0.18 0.25 0.32 0.34 0.35 0.35 0.40 0.50 0.57 0.55 0.43 0.39 0.38 0.38 0.36 0.31 0.29 0.29 0.26 0.24 0.25 0.26 0.26 0.24 0.24 0.26 0.33 0.41 0.47 0.55 0.65 0.81 0.87 0.80 0.76 0.69 0.68 0.70 0.69 0.66
0.13 0.23 0.30 0.25 0.21 0.23 0.48 0.51 0.51 0.52 0.46 0.45 0.40 0.32 0.21 0.20 0.23 0.26 0.26 0.26 0.29 0.25 0.20 0.18 0.19 0.20 0.21 0.22 0.25 0.28 0.34 0.44 0.44 0.48 0.60 0.80 0.81 0.70 0.65 0.71 0.75 0.71 0.69 0.70
0.11 0.23 0.32 0.27 0.29 0.57 0.82 0.61 0.58 0.52 0.31 0.17 0.13 0.12 0.12 0.17 0.17 0.15 0.16 0.19 0.22 0.19 0.15 0.13 0.13 0.13 0.14 0.17 0.21 0.24 0.28 0.32 0.35 0.41 0.50 0.65 0.68 0.66 0.69 0.70 0.68 0.63 0.59 0.57
0.12 0.24 0.33 0.29 0.33 0.60 0.64 0.41 0.33 0.33 0.21 0.07 0.06 0.08 0.10 0.12 0.11 0.09 0.09 0.10 0.11 0.11 0.07 0.06 0.06 0.05 0.05 0.06 0.07 0.11 0.13 0.16 0.21 0.28 0.37 0.46 0.50 0.54 0.57 0.56 0.56 0.52 0.49 0.50
0.25 0.31 0.43 0.44 0.54 0.58 0.31 0.16 0.15 0.22 0.26 0.06 0.03 0.04 0.04 0.06 0.09 0.06 0.04 0.05 0.05 0.05 0.04 0.03 0.02 0.01 0.01 0.01 0.02 0.04 0.06 0.10 0.14 0.20 0.27 0.34 0.37 0.41 0.43 0.48 0.51 0.51 0.48 0.46
0.22 0.30 0.38 0.46 0.65 0.54 0.21 0.11 0.11 0.21 0.27 0.08 0.03 0.02 0.02 0.02 0.04 0.02 0.03 0.04 0.04 0.03 0.03 0.01 0.01 0.00 0.00 0.01 0.01 0.02 0.05 0.07 0.08 0.11 0.16 0.23 0.30 0.38 0.45 0.51 0.52 0.55 0.52 0.47
0.25 0.27 0.28 0.38 0.54 0.49 0.20 0.15 0.18 0.17 0.08 0.03 0.02 0.01 0.01 0.01 0.01 0.01 0.02 0.02 0.03 0.03 0.02 0.01 0.01 0.00 0.00 0.01 0.01 0.01 0.02 0.03 0.04 0.06 0.11 0.18 0.26 0.33 0.42 0.51 0.54 0.54 0.54 0.53
0.27 0.30 0.32 0.43 0.57 0.38 0.23 0.20 0.19 0.12 0.06 0.02 0.01 0.01 0.00 0.00 0.00 0.00 0.01 0.02 0.02 0.03 0.02 0.01 0.01 0.01 0.00 0.01 0.01 0.00 0.00 0.00 0.01 0.03 0.06 0.11 0.15 0.19 0.25 0.33 0.41 0.47 0.51 0.53
0.15 0.17 0.23 0.32 0.32 0.20 0.18 0.16 0.12 0.07 0.04 0.02 0.01 0.00 0.00 0.00 0.00 0.00 0.01 0.01 0.02 0.02 0.01 0.01 0.01 0.01 0.01 0.00 0.00 0.00 0.00 0.00 0.00 0.01 0.03 0.05 0.06 0.07 0.10 0.20 0.28 0.35 0.42 0.48
0.10 0.13 0.18 0.25 0.25 0.15 0.10 0.10 0.07 0.04 0.02 0.01 0.01 0.00 0.00 0.00 0.00 0.00 0.00 0.00 0.01 0.01 0.01 0.01 0.01 0.01 0.00 0.00 0.00 0.00 0.01 0.01 0.01 0.01 0.01 0.02 0.04 0.06 0.08 0.14 0.22 0.27 0.34 0.37
0.07 0.11 0.17 0.24 0.23 0.17 0.08 0.07 0.05 0.03 0.02 0.01 0.01 0.00 0.00 0.00 0.00 0.00 0.00 0.00 0.01 0.01 0.01 0.01 0.01 0.01 0.00 0.00 0.00 0.01 0.03 0.02 0.04 0.06 0.03 0.02 0.03 0.06 0.08 0.11 0.13 0.13 0.16 0.16